Etusivu
METAR-TAF:

METAR-TAF

Lentoasemat :

Gaines County Airport

Seminole, Texas, Yhdysvallat

Leveyspiiri: 32-40-31N, Pituuspiiri: 102-39-09W, korkeus merenpinnasta: 1010 m

Tämänhetkinen sää

Tämä raportti tehtiin 18 minuuttia sitten, kello 02.15 UTC
Tuuli 4 kn lännestä/luoteesta
Lämpötila 19°C
Kosteus 43%
Ilmanpaine 1010 hPa
Näkyvyys: 16.1 km
selkeää

METAR: KGNC 190215Z AUTO 29004KT 10SM CLR 19/06 A2983 RMK AO2 T01920056

Aika: 21:33 (02:33 UTC)


TAF: puuttuu

Säähavainnot ja -ennusteet yli 4000 lentoasemalta (METAR- ja TAF-raportit).

Käytössä olevat sääasemat on merkitty karttaan keltaisilla ja punaisilla pisteillä.

Aseta hiiri pisteen päälle nähdäksesi sääaseman nimen.

Klikkaa sitten nähdäksesi säähavainnot ja -ennusteet.

Kartan vaihtaminen: klikkaa mustalla rastilla varustettuja vihreitä pisteitä, niin voit zoomata sisään; viivalla varustettua vihreää pistettä, niin voit zoomata ulos tai vihreitä nuolia, niin pääset viereisille kartoille.


METAR-TAF: